Temperature
20 18 17 18 18 19 19 18 18 18 19 18 17 17 17 17 17 17 17 17 17 17 17 17 17 17 17 17 17 16 16 16 16 16 16 15 15 15 15 15 14 14 14 14
17 18 19 19 19 19 19 18 18 18 19 18 17 17 17 17 17 17 17 17 17 17 17 17 17 17 17 17 16 16 16 16 16 16 15 15 15 15 15 14 14 14 14 14
18 19 20 20 19 19 19 18 18 18 18 18 17 16 16 16 17 17 17 18 18 17 17 17 17 17 17 16 16 16 16 16 16 15 15 15 15 15 14 14 14 14 14 14
18 19 20 19 19 19 18 19 19 19 17 16 17 15 16 16 16 16 17 17 17 17 17 17 17 17 17 16 16 16 16 16 15 15 15 15 15 14 14 14 14 13 13 13
18 19 19 19 19 19 19 19 19 18 17 16 16 15 15 15 15 15 16 17 17 17 17 17 17 17 17 16 16 16 16 15 15 15 15 15 14 14 14 14 13 13 13 13
19 19 19 19 20 20 19 18 17 15 15 15 16 15 15 14 15 16 16 17 17 17 17 17 17 17 16 16 16 16 15 15 15 15 14 14 14 14 14 13 13 13 13 13
18 18 19 20 19 19 18 15 15 15 14 15 15 15 15 16 16 16 16 17 17 17 17 17 17 16 16 16 16 15 15 15 15 14 14 14 14 14 13 13 13 13 13 12
16 16 18 19 18 18 17 16 15 15 15 15 15 15 15 17 17 18 18 18 18 17 17 17 17 16 16 16 16 15 15 15 14 14 14 14 14 13 13 13 13 13 12 12
16 16 18 19 19 18 17 15 15 14 15 14 14 15 16 17 16 16 17 17 17 17 17 17 17 16 16 16 16 15 15 15 14 14 14 14 13 13 13 13 13 12 12 12
16 16 17 18 19 18 17 16 13 14 14 14 15 15 15 16 16 16 15 16 17 17 17 17 16 16 16 16 15 15 15 14 14 14 14 13 13 13 13 13 12 12 12 12
16 15 16 16 17 17 17 16 14 13 13 13 14 14 16 15 16 15 15 16 17 17 17 17 16 16 16 15 15 15 14 14 14 14 14 13 13 13 13 13 12 12 12 12
15 13 14 15 16 17 16 16 14 13 13 12 12 14 16 15 15 15 16 16 17 17 17 16 16 16 15 15 15 14 14 14 14 14 13 13 13 13 12 12 12 12 12 11
15 13 13 14 15 16 16 16 15 13 12 12 12 14 15 15 15 16 16 16 17 17 17 16 16 15 15 15 14 14 14 14 14 13 13 13 13 12 12 12 12 12 11 11
15 13 13 14 14 14 15 16 15 13 12 12 12 14 15 15 14 15 16 16 16 16 16 16 16 15 15 15 14 14 14 13 13 13 13 12 12 12 12 12 11 11 11 11
14 13 14 14 14 15 15 15 15 14 13 13 13 14 14 14 14 15 16 16 15 15 15 15 15 15 15 14 14 14 13 13 13 12 12 12 12 12 12 11 11 11 11 11
12 13 13 14 15 15 14 15 15 14 14 14 14 14 14 14 15 15 15 15 15 15 15 15 15 15 14 14 14 13 13 13 13 12 12 12 11 11 11 11 11 11 11 10
11 12 12 12 13 14 13 14 14 14 14 14 13 13 13 13 13 14 14 15 15 15 15 15 15 14 14 14 14 13 13 13 12 12 12 11 11 11 11 11 10 10 10 10
11 11 10 11 13 13 13 14 14 14 14 14 14 13 13 14 14 15 15 15 15 15 15 15 15 14 14 14 13 13 13 12 12 11 11 11 11 10 10 10 10 10 10 10
11 11 10 10 11 12 13 14 14 14 13 13 12 13 13 14 14 13 14 14 15 15 14 14 14 14 14 13 13 12 12 12 11 11 11 11 10 10 10 10 10 9 9 9
11 10 10 10 11 11 12 13 14 13 12 12 12 12 12 12 10 11 13 14 14 14 14 14 14 13 13 13 12 12 12 11 11 11 10 10 10 10 10 10 9 9 9 8
10 10 10 9 10 11 11 13 13 12 11 12 12 12 12 11 11 13 13 13 13 13 13 13 13 13 13 12 12 12 11 11 11 10 10 10 10 10 9 9 9 9 8 8
10 9 9 9 9 10 11 12 11 11 12 12 12 12 12 12 12 12 12 12 12 12 12 12 12 12 12 12 11 11 11 11 10 10 10 10 9 9 9 8 8 8 8 8
9 9 9 9 10 11 12 12 12 12 12 12 12 12 12 12 11 12 12 12 12 12 12 12 12 11 11 11 11 11 10 10 9 9 9 9 9 9 8 8 8 8 7 7
8 9 8 8 9 10 11 11 11 11 12 12 12 12 12 11 11 11 11 11 11 11 11 11 11 11 10 10 10 10 10 9 9 9 9 9 8 8 8 8 7 7 7 7
8 8 8 8 8 10 10 11 11 11 11 11 11 11 11 11 11 11 11 11 10 10 10 10 10 10 10 10 9 9 9 9 9 8 8 8 8 8 7 7 7 7 6 6
7 8 8 8 9 8 9 10 10 10 10 10 10 10 10 10 10 10 10 10 10 10 10 10 10 9 9 9 9 9 9 8 8 8 8 7 7 7 7 6 6 6 6 5
Wind_Speed
3 4 1 6 6 5 4 3 4 5 5 5 6 7 7 7 6 7 7 7 7 8 7 6 6 7 7 6 5 5 6 5 4 4 3 2 2 1 2 2 4 5 5 5
5 2 6 5 3 2 3 3 3 3 3 4 5 7 7 8 9 9 10 10 9 7 5 6 6 6 7 7 6 5 6 5 5 4 3 2 2 1 1 1 3 4 5 4
4 5 4 1 1 1 2 4 4 3 1 0 1 3 4 5 5 5 7 8 9 10 10 9 7 7 7 7 7 7 6 6 5 4 4 3 3 2 2 2 1 2 3 3
2 4 1 0 2 2 3 4 4 3 2 3 2 3 6 5 4 6 6 6 7 8 9 10 9 9 9 8 7 7 6 6 5 5 5 5 3 2 2 1 0 1 2 2
2 1 1 1 4 2 4 4 2 2 2 1 2 2 6 2 5 7 8 8 8 9 10 11 11 11 9 9 8 7 6 5 5 6 6 6 3 2 1 1 1 1 1 2
3 2 2 4 3 2 1 3 4 4 3 2 5 4 5 4 8 7 8 8 8 9 9 10 9 8 7 7 6 6 6 5 5 6 6 6 5 4 3 2 1 0 1 1
5 5 3 0 2 4 4 5 3 3 2 5 3 3 6 7 7 8 9 9 8 8 9 8 8 9 8 8 7 6 7 6 5 6 5 6 6 5 5 3 3 1 0 1
1 6 4 1 2 2 1 6 5 4 4 4 2 4 6 7 4 4 5 6 7 8 8 9 10 11 10 10 9 8 8 6 6 6 6 5 5 4 4 4 3 3 2 2
3 5 5 3 1 4 2 2 5 4 2 2 4 5 6 3 2 0 2 4 6 8 8 9 10 10 10 10 10 9 9 7 7 7 6 5 4 4 4 4 3 3 2 1
4 3 5 3 2 1 4 4 4 3 1 3 4 4 4 5 4 3 4 5 6 7 7 8 9 10 9 9 8 8 8 8 7 6 6 5 5 4 4 4 4 3 2 2
2 2 4 3 1 3 1 2 3 3 3 3 3 6 4 6 6 6 6 7 7 7 7 8 8 8 8 7 7 7 7 6 6 6 5 4 4 4 4 4 4 3 3 2
1 4 2 5 5 2 4 4 5 3 3 3 3 7 5 4 4 5 5 5 6 7 6 6 7 7 7 7 7 7 7 7 6 6 5 5 4 4 4 4 3 3 3 3
2 4 1 6 6 4 0 2 4 4 3 3 4 7 5 4 3 3 3 4 5 5 5 5 5 7 8 8 8 7 7 7 6 5 5 4 4 4 4 3 3 3 3 2
3 3 5 7 6 4 4 4 3 4 4 5 7 8 8 6 5 4 3 3 4 5 5 5 5 6 6 7 7 7 6 6 5 5 5 5 5 5 4 3 3 3 3 3
3 3 4 7 6 4 5 6 5 6 7 8 8 8 9 7 7 5 3 2 2 3 4 5 6 5 5 5 5 5 5 5 6 6 5 5 4 4 4 3 2 2 2 2
2 2 2 4 4 4 5 6 6 7 7 8 7 8 7 5 4 3 2 2 2 3 5 6 6 6 6 6 6 5 5 5 6 6 6 5 4 4 4 3 3 3 2 2
0 2 1 4 5 4 6 6 5 4 3 5 7 8 6 3 3 4 3 3 4 5 4 5 6 7 7 7 7 7 6 5 6 6 5 5 5 5 4 4 4 3 2 2
4 3 2 2 2 6 7 4 3 3 3 3 3 4 4 4 4 3 3 3 4 4 4 4 5 5 5 5 5 5 5 5 6 6 6 5 5 5 4 4 4 3 2 2
5 5 3 2 4 7 6 4 2 3 3 3 2 4 3 1 2 3 3 2 4 4 4 4 4 5 4 5 5 6 5 5 5 5 6 6 6 6 5 4 4 3 2 2
2 3 4 3 4 6 6 5 4 1 3 5 3 3 2 2 1 5 5 2 1 1 2 2 2 2 3 4 5 6 6 5 6 6 6 6 6 6 6 5 4 2 2 2
1 0 3 5 6 6 5 4 2 2 6 5 3 2 1 1 4 5 3 2 1 0 1 2 3 3 3 3 5 6 5 6 6 4 4 5 5 6 6 4 3 3 2 2
4 3 4 3 4 6 4 2 2 5 4 3 2 2 1 2 2 2 2 2 2 1 1 2 3 2 2 3 5 5 5 4 4 4 4 4 4 5 4 4 3 3 3 3
4 5 4 6 6 4 1 1 2 1 1 2 2 3 1 1 2 2 2 2 2 1 1 2 3 2 1 2 4 5 3 3 4 4 4 4 4 4 4 4 4 3 2 2
4 0 1 3 4 4 3 3 3 2 2 3 2 2 1 1 2 2 2 2 2 1 1 1 2 2 1 1 2 3 3 3 4 5 4 4 4 4 3 3 3 3 3 3
5 2 2 5 6 5 4 4 3 4 4 3 3 2 2 1 2 2 2 2 2 1 1 1 2 2 2 2 2 2 3 4 4 4 4 4 4 4 4 3 3 3 3 4
4 5 5 6 6 4 5 5 3 3 4 4 3 3 3 2 2 3 3 2 2 1 1 1 1 1 1 2 2 2 3 4 4 4 4 3 4 3 3 3 1 1 1 1
Wind_Direction
20 72 191 222 206 203 199 197 223 235 213 177 202 221 222 204 191 192 196 195 196 198 194 172 166 151 140 137 139 144 141 142 130 121 117 107 96 76 65 60 72 72 70 75
35 294 249 239 236 224 198 202 233 254 222 184 209 230 223 207 204 199 198 198 198 195 175 167 164 152 150 152 153 149 150 149 150 150 151 147 142 133 125 56 57 70 78 81
179 244 262 220 241 196 236 202 215 222 278 213 142 288 252 240 220 212 206 198 194 189 183 178 171 166 162 165 168 164 167 159 153 140 121 99 75 57 45 40 42 33 79 82
232 273 331 308 272 185 258 237 203 194 135 254 187 253 268 236 225 219 216 204 198 191 183 178 173 172 175 178 172 165 167 163 158 147 139 136 137 154 198 193 167 22 55 71
263 254 96 275 269 217 221 237 208 206 181 281 249 199 276 229 230 238 228 213 202 192 181 179 179 178 179 175 170 165 161 160 160 158 157 151 147 165 161 119 106 58 26 38
258 256 196 224 266 241 213 36 32 44 76 278 239 195 266 229 219 225 224 216 205 191 185 183 181 171 170 168 164 160 159 163 163 164 166 162 162 159 147 147 147 55 330 338
328 318 312 324 10 352 62 79 29 349 347 254 241 198 249 248 224 211 209 209 203 187 182 181 177 173 171 170 166 165 166 173 174 170 174 176 176 174 178 181 179 171 200 252
319 298 293 282 175 204 188 138 159 208 235 274 309 234 255 266 240 211 198 192 188 185 184 186 186 182 179 177 173 172 173 178 179 179 186 185 179 179 187 185 179 188 202 212
199 266 290 278 213 145 142 169 176 157 239 268 283 286 298 310 348 115 176 182 192 192 189 189 188 185 182 180 180 180 179 180 184 186 185 185 180 179 182 182 178 189 205 194
177 251 294 311 37 29 149 151 86 115 198 261 283 267 254 256 245 226 206 205 207 193 191 192 189 187 184 183 181 178 179 186 189 187 187 186 183 181 178 173 176 183 193 180
119 174 301 349 208 227 118 113 122 138 168 177 260 270 236 229 235 221 218 206 196 192 196 196 194 188 180 176 175 178 182 182 188 187 186 179 182 178 172 175 183 182 180 175
139 135 245 266 272 219 169 172 148 162 236 196 212 266 285 251 241 219 225 216 196 189 190 188 188 180 175 178 182 186 186 185 191 187 179 179 178 172 173 182 185 175 174 185
101 110 17 332 332 350 300 199 171 156 154 185 209 264 302 325 297 247 224 223 204 188 182 178 178 180 182 183 185 189 188 188 188 180 173 172 175 173 179 187 182 173 170 174
104 132 177 209 231 245 262 262 210 157 187 227 231 256 290 300 285 276 252 227 205 189 178 176 186 189 192 188 185 185 189 186 180 174 173 178 184 184 185 182 173 166 160 160
91 189 223 238 241 232 249 260 239 214 212 217 245 248 264 267 262 253 237 217 176 188 186 185 192 197 192 187 187 185 184 180 172 167 174 183 182 171 159 152 149 141 137 138
60 206 252 275 262 277 279 275 256 238 230 233 250 259 267 270 269 263 229 186 188 211 205 194 192 191 193 193 190 187 185 181 170 169 177 173 166 158 151 147 138 124 119 121
181 159 200 267 289 327 282 262 242 236 235 213 234 251 271 283 268 244 232 212 207 214 212 200 192 193 197 198 190 189 189 179 169 171 170 165 162 157 155 146 128 132 139 122
175 165 175 251 319 252 249 263 240 229 257 256 248 257 251 239 245 243 226 210 222 218 205 208 203 197 196 190 184 176 166 165 169 171 171 167 160 157 151 145 148 155 148 143
183 177 174 183 236 267 284 289 269 227 266 321 304 302 294 270 16 337 296 243 223 212 205 203 202 193 181 177 171 156 155 158 164 177 179 175 165 160 159 162 168 162 148 150
115 142 162 180 212 240 255 283 293 143 267 310 312 299 301 58 25 287 302 293 265 225 197 185 167 148 161 172 158 153 161 165 180 189 188 179 169 166 170 172 167 159 152 160
7 64 193 207 228 255 269 297 33 158 263 287 280 275 305 215 232 264 295 315 314 268 156 134 131 143 171 163 151 157 166 185 196 188 178 173 169 168 167 161 157 149 143 134
201 204 214 191 219 257 297 68 156 237 267 282 288 280 284 279 300 328 346 339 342 359 109 128 129 138 153 151 151 159 179 194 184 171 166 168 170 166 156 150 152 152 150 149
205 203 203 199 219 250 248 198 253 228 252 269 276 281 275 326 311 322 331 329 319 297 175 149 140 138 136 156 154 162 188 178 163 157 163 170 167 161 155 157 159 157 159 165
283 228 179 265 272 289 305 317 331 328 296 292 290 289 286 268 261 276 295 302 301 301 245 162 134 136 151 173 157 165 173 166 155 159 169 171 166 163 159 162 168 169 178 181
254 256 245 261 280 302 321 325 324 330 334 334 332 323 302 293 287 264 258 256 258 265 266 179 173 175 191 185 174 166 159 153 153 159 165 169 170 169 167 169 181 185 201 193
219 207 210 240 249 238 264 280 307 316 314 310 323 332 324 305 288 282 266 248 229 214 210 187 164 167 194 185 187 180 166 160 158 161 169 171 168 169 167 159 126 44 154 166
Height
1510 1515 1520 1518 1515 1516 1518 1522 1525 1522 1516 1519 1522 1522 1520 1519 1520 1521 1521 1522 1523 1524 1526 1527 1528 1529 1531 1532 1533 1534 1535 1536 1536 1537 1537 1537 1538 1538 1538 1538 1538 1538 1537 1537
1517 1519 1513 1510 1511 1513 1516 1522 1522 1519 1515 1518 1521 1520 1517 1516 1516 1516 1517 1519 1520 1522 1524 1525 1526 1527 1529 1530 1532 1533 1534 1535 1535 1536 1536 1537 1537 1538 1538 1538 1538 1537 1537 1537
1518 1515 1509 1510 1512 1515 1516 1519 1519 1520 1517 1517 1520 1523 1518 1514 1514 1514 1515 1515 1516 1518 1520 1521 1523 1525 1527 1528 1530 1531 1532 1533 1534 1535 1535 1536 1537 1537 1537 1537 1537 1537 1536 1536
1514 1510 1509 1511 1513 1513 1519 1511 1512 1515 1523 1529 1524 1536 1521 1514 1513 1512 1512 1512 1513 1515 1516 1518 1520 1522 1524 1526 1528 1529 1531 1532 1533 1534 1534 1534 1534 1535 1535 1536 1536 1536 1536 1535
1515 1510 1511 1513 1511 1509 1512 1508 1510 1514 1520 1527 1526 1532 1525 1515 1515 1511 1508 1508 1509 1511 1513 1515 1517 1520 1522 1524 1526 1527 1529 1530 1531 1532 1532 1533 1533 1534 1534 1535 1535 1535 1535 1534
1511 1508 1508 1508 1507 1506 1507 1510 1514 1520 1526 1535 1526 1530 1527 1517 1510 1506 1504 1505 1506 1508 1510 1512 1515 1517 1519 1521 1523 1525 1526 1527 1529 1530 1531 1531 1532 1532 1533 1533 1533 1533 1533 1533
1517 1511 1507 1506 1508 1508 1510 1523 1536 1537 1541 1537 1522 1525 1522 1505 1501 1500 1500 1501 1503 1506 1508 1510 1512 1515 1516 1518 1520 1522 1524 1525 1526 1527 1528 1529 1530 1531 1531 1531 1531 1531 1531 1531
1527 1524 1511 1507 1509 1513 1513 1521 1537 1543 1543 1534 1523 1525 1514 1500 1497 1496 1497 1499 1501 1503 1505 1507 1509 1512 1513 1515 1517 1519 1521 1522 1524 1525 1526 1527 1528 1529 1529 1530 1530 1530 1530 1529
1526 1524 1509 1505 1505 1507 1514 1520 1520 1531 1532 1536 1531 1520 1507 1499 1497 1497 1497 1498 1499 1501 1503 1505 1507 1509 1511 1513 1515 1516 1518 1520 1521 1522 1523 1524 1525 1526 1527 1527 1528 1528 1528 1528
1517 1522 1512 1507 1505 1506 1509 1514 1526 1531 1537 1540 1531 1524 1517 1504 1500 1498 1497 1497 1497 1499 1501 1503 1504 1506 1508 1510 1512 1514 1515 1517 1518 1519 1520 1521 1522 1523 1524 1525 1525 1526 1526 1526
1514 1522 1518 1513 1512 1513 1513 1516 1521 1530 1533 1540 1539 1527 1503 1501 1498 1497 1495 1495 1496 1497 1499 1500 1502 1504 1506 1508 1509 1511 1513 1514 1515 1516 1517 1518 1519 1521 1521 1522 1522 1523 1523 1523
1514 1522 1526 1518 1509 1506 1509 1513 1520 1531 1532 1533 1535 1525 1497 1496 1495 1494 1494 1493 1494 1495 1497 1498 1500 1501 1503 1505 1506 1508 1509 1511 1512 1513 1514 1515 1517 1518 1519 1519 1520 1520 1520 1521
1513 1522 1530 1527 1521 1513 1511 1510 1513 1520 1528 1533 1534 1522 1497 1495 1494 1493 1493 1493 1493 1494 1495 1496 1497 1499 1500 1501 1503 1505 1506 1507 1509 1511 1511 1512 1514 1515 1515 1516 1517 1517 1518 1518
1510 1520 1527 1530 1524 1517 1514 1510 1509 1517 1527 1528 1523 1514 1502 1498 1495 1493 1492 1491 1491 1492 1493 1494 1494 1496 1497 1498 1500 1501 1503 1504 1506 1507 1508 1509 1510 1512 1513 1513 1514 1514 1515 1515
1511 1519 1517 1515 1512 1511 1510 1508 1507 1511 1513 1518 1512 1507 1501 1496 1494 1492 1491 1490 1490 1490 1490 1491 1492 1493 1494 1496 1497 1498 1499 1501 1503 1504 1505 1506 1508 1509 1510 1510 1511 1511 1512 1512
1513 1517 1515 1514 1509 1509 1508 1505 1504 1504 1505 1506 1504 1502 1494 1492 1491 1490 1489 1489 1488 1489 1489 1489 1490 1491 1492 1492 1494 1495 1496 1498 1499 1501 1502 1503 1504 1505 1506 1507 1508 1508 1509 1509
1515 1517 1520 1521 1512 1510 1512 1505 1502 1502 1500 1501 1503 1499 1492 1491 1490 1488 1487 1486 1486 1486 1486 1487 1487 1488 1489 1490 1491 1492 1494 1495 1496 1497 1499 1500 1501 1502 1503 1504 1505 1505 1506 1506
1513 1516 1521 1521 1517 1521 1508 1498 1496 1497 1496 1495 1493 1492 1490 1488 1487 1486 1485 1484 1484 1484 1484 1484 1485 1486 1487 1488 1489 1490 1491 1492 1493 1494 1495 1497 1498 1499 1500 1500 1501 1502 1502 1503
1507 1512 1519 1522 1521 1514 1504 1497 1495 1496 1496 1494 1492 1489 1488 1486 1485 1485 1484 1484 1483 1482 1482 1482 1483 1484 1485 1485 1486 1488 1489 1489 1490 1491 1492 1494 1495 1496 1496 1497 1498 1499 1499 1500
1505 1508 1516 1519 1518 1516 1504 1495 1491 1494 1498 1492 1490 1488 1486 1485 1489 1487 1484 1482 1481 1481 1480 1480 1481 1482 1482 1483 1484 1485 1485 1487 1487 1488 1490 1491 1492 1493 1493 1494 1495 1496 1496 1496
1510 1512 1515 1517 1516 1508 1498 1493 1492 1502 1500 1491 1488 1487 1486 1485 1486 1484 1482 1481 1480 1479 1479 1479 1479 1480 1480 1481 1481 1482 1483 1484 1485 1486 1487 1488 1489 1489 1490 1491 1492 1492 1493 1493
1511 1513 1513 1515 1515 1510 1494 1493 1496 1496 1491 1489 1487 1486 1484 1483 1482 1481 1480 1479 1478 1478 1477 1477 1477 1477 1478 1478 1479 1479 1480 1481 1482 1483 1484 1485 1486 1486 1487 1488 1488 1489 1489 1489
1507 1507 1506 1506 1504 1496 1493 1492 1492 1490 1489 1487 1486 1485 1483 1482 1480 1479 1479 1478 1477 1476 1476 1475 1475 1476 1476 1477 1477 1477 1478 1479 1479 1480 1481 1482 1482 1483 1483 1484 1485 1485 1486 1486
1503 1500 1501 1501 1496 1493 1492 1490 1489 1488 1487 1486 1485 1483 1482 1480 1479 1478 1477 1476 1475 1475 1474 1473 1473 1474 1474 1475 1475 1475 1475 1476 1476 1477 1477 1478 1479 1479 1480 1481 1481 1482 1482 1482
1501 1499 1500 1499 1494 1491 1489 1489 1488 1487 1485 1484 1483 1482 1481 1479 1477 1476 1475 1474 1473 1473 1472 1472 1472 1471 1472 1472 1473 1473 1473 1473 1473 1474 1474 1475 1476 1476 1476 1477 1478 1478 1479 1479
1496 1496 1497 1495 1491 1491 1489 1487 1487 1485 1483 1482 1481 1479 1478 1477 1475 1474 1472 1471 1471 1470 1470 1470 1470 1470 1470 1470 1470 1470 1470 1470 1470 1470 1471 1472 1472 1473 1473 1474 1474 1475 1476 1476